Location: Asheville, NC
(35.6000°N, 82.5500°W)
Time: 01:18:26
(UTC-05:00)

Vanguard 1 Rocket - Pass Details

Date: 09 December 2017
Orbit: 656 x 4222 km, 34.3° (Epoch: 20 January)

Event Time Altitude Azimuth Distance (km) Brightness Sun altitude
Exits shadow 02:30:35 19° 174° (S) 5,815 11.3 -59.5°
Drops below altitude 10° 02:34:49 10° 165° (SSE) 6,239 11.6 -58.6°
Sets 02:39:30 0° 157° (SSE) 6,828 11.9 -57.7°
